Change the Weather History Date:

Wednesday, March 12, 2014

  Actual Average (KGGG) Record (KGGG)
Temperature  
Mean Temperature 53 °F 57 °F  
Max Temperature 62 °F 68 °F 90 °F (1967)
Min Temperature 42 °F 46 °F 17 °F (1948)
Degree Days  
Heating Degree Days 12 9  
Month to date heating degree days 122  
Since 1 July heating degree days 2026  
Cooling Degree Days 0 1  
Month to date cooling degree days 12  
Year to date cooling degree days 24  
Growing Degree Days 3 (Base 50)    
Moisture  
Dew Point 29 °F    
Average Humidity 42    
Maximum Humidity 72    
Minimum Humidity 21    
Precipitation  
Precipitation 0.00 in 0.13 in 2.25 in (1974)
Month to date precipitation 1.66  
Year to date precipitation 9.02  
Snow  
Snow 0.00 in - - ()
Month to date snowfall  
Since 1 July snowfall  
Snow Depth -    
Sea Level Pressure  
Sea Level Pressure 30.10 in    
Wind  
Wind Speed 16 mph (NNW)    
Max Wind Speed 25 mph    
Max Gust Speed 36 mph    
Visibility 10 miles    
Events      
T = Trace of Precipitation, MM = Missing Value Source: NWS Daily Summary

Daily Weather History Graph

Daily Weather History Graph

Search for Another Location

Airport or City:

Trip Planner

Search our weather history database for the weather conditions in past years. The results will help you decide how hot, cold, wet, or windy it might be!

Date:

Astronomy

Mar. 12, 2014 Rise Set
Actual Time 7:34 AM CDT 7:25 PM CDT
Civil Twilight 7:09 AM CDT 7:50 PM CDT
Nautical Twilight 6:40 AM CDT 8:18 PM CDT
Astronomical Twilight 6:11 AM CDT 8:47 PM CDT
Moon 4:05 PM CDT (3/12) 4:56 AM CDT (3/12)
Length of Visible Light 12h 40m
Length of Day
11h 51m
Waxing Gibbous, 85% of the Moon is Illuminated
Mar 12
Waxing Gibbous
Mar 16
Full
Mar 23
Last Quarter
Mar 30
New
Apr 7
First Quarter

Hourly Weather History & Observations

Time (CDT) Temp. Windchill Dew Point Humidity Pressure Visibility Wind Dir Wind Speed Gust Speed Precip Events Conditions
12:15 AM 63.9 °F - 54.9 °F 72% 29.72 in 10.0 mi West 8.1 mph - N/A   Overcast
12:35 AM 64.6 °F - 51.8 °F 63% 29.73 in 10.0 mi WNW 20.7 mph 28.8 mph N/A   Overcast
12:55 AM 62.8 °F - 40.6 °F 44% 29.75 in 10.0 mi NW 16.1 mph 29.9 mph N/A   Mostly Cloudy
1:15 AM 61.0 °F - 38.3 °F 43% 29.76 in 10.0 mi NW 16.1 mph 25.3 mph N/A   Scattered Clouds
1:35 AM 59.9 °F - 37.6 °F 44% 29.77 in 10.0 mi NW 19.6 mph 27.6 mph N/A   Clear
1:55 AM 58.3 °F - 36.9 °F 45% 29.79 in 10.0 mi NW 18.4 mph 27.6 mph N/A   Clear
2:15 AM 57.6 °F - 36.9 °F 46% 29.80 in 10.0 mi NW 18.4 mph 26.5 mph N/A   Clear
2:35 AM 56.7 °F - 37.0 °F 48% 29.81 in 10.0 mi NW 17.3 mph 24.2 mph N/A   Clear
2:55 AM 55.8 °F - 37.2 °F 50% 29.83 in 10.0 mi NW 18.4 mph 24.2 mph N/A   Clear
3:15 AM 54.9 °F - 37.4 °F 52% 29.84 in 10.0 mi NW 20.7 mph 28.8 mph N/A   Clear
3:35 AM 53.8 °F - 37.4 °F 54% 29.85 in 10.0 mi NNW 20.7 mph 31.1 mph N/A   Clear
3:55 AM 52.7 °F - 37.4 °F 56% 29.87 in 10.0 mi NNW 23.0 mph 29.9 mph N/A   Clear
4:15 AM 52.2 °F - 37.6 °F 58% 29.88 in 10.0 mi NNW 19.6 mph 26.5 mph N/A   Clear
4:35 AM 51.6 °F - 37.4 °F 58% 29.90 in 10.0 mi NW 18.4 mph 24.2 mph N/A   Clear
4:55 AM 51.1 °F - 37.4 °F 60% 29.91 in 10.0 mi NNW 16.1 mph 32.2 mph N/A   Clear
5:15 AM 50.5 °F - 37.0 °F 60% 29.92 in 10.0 mi NNW 21.9 mph 35.7 mph N/A   Clear
5:35 AM 50.0 °F - 36.5 °F 60% 29.94 in 10.0 mi NW 19.6 mph 29.9 mph N/A   Clear
5:55 AM 49.1 °F - 36.5 °F 62% 29.96 in 10.0 mi NNW 15.0 mph 24.2 mph N/A   Clear
6:15 AM 48.7 °F - 36.1 °F 62% 29.98 in 10.0 mi NNW 24.2 mph 34.5 mph N/A   Clear
6:35 AM 48.4 °F - 35.8 °F 62% 30.00 in 10.0 mi NNW 21.9 mph 29.9 mph N/A   Clear
6:55 AM 47.8 °F - 35.2 °F 62% 30.02 in 10.0 mi NNW 25.3 mph 32.2 mph N/A   Clear
7:15 AM 47.3 °F - 34.7 °F 62% 30.03 in 10.0 mi NNW 24.2 mph 29.9 mph N/A   Clear
7:35 AM 46.9 °F - 34.3 °F 62% 30.04 in 10.0 mi North 19.6 mph 25.3 mph N/A   Clear
7:55 AM 46.6 °F - 34.9 °F 64% 30.06 in 10.0 mi NNW 10.4 mph 13.8 mph N/A   Scattered Clouds
8:15 AM 47.1 °F - 35.2 °F 63% 30.07 in 10.0 mi NNW 15.0 mph 24.2 mph N/A   Scattered Clouds
8:35 AM 47.8 °F - 34.5 °F 60% 30.09 in 10.0 mi North 17.3 mph 25.3 mph N/A   Scattered Clouds
8:55 AM 48.4 °F - 33.8 °F 57% 30.11 in 10.0 mi North 17.3 mph 27.6 mph N/A   Clear
9:15 AM 49.1 °F - 33.4 °F 55% 30.13 in 10.0 mi NNW 24.2 mph 28.8 mph N/A   Clear
9:35 AM 49.6 °F - 32.9 °F 53% 30.14 in 10.0 mi North 16.1 mph 26.5 mph N/A   Clear
9:55 AM 50.2 °F - 31.6 °F 49% 30.16 in 10.0 mi North 18.4 mph 31.1 mph N/A   Clear
10:15 AM 51.1 °F - 32.0 °F 48% 30.18 in 10.0 mi NNW 16.1 mph 24.2 mph N/A   Clear
10:35 AM 52.0 °F - 30.0 °F 43% 30.19 in 10.0 mi North 19.6 mph 25.3 mph N/A   Clear
10:55 AM 52.7 °F - 30.2 °F 42% 30.20 in 10.0 mi North 16.1 mph 27.6 mph N/A   Clear
11:15 AM 52.7 °F - 27.7 °F 38% 30.21 in 10.0 mi NNW 19.6 mph 29.9 mph N/A   Clear
11:35 AM 53.4 °F - 26.6 °F 36% 30.21 in 10.0 mi North 20.7 mph 27.6 mph N/A   Clear
11:55 AM 54.5 °F - 26.6 °F 34% 30.22 in 10.0 mi NNW 18.4 mph 25.3 mph N/A   Clear
12:15 PM 55.0 °F - 26.6 °F 33% 30.23 in 10.0 mi NNW 12.7 mph 25.3 mph N/A   Clear
12:35 PM 56.3 °F - 25.7 °F 31% 30.23 in 10.0 mi North 19.6 mph 25.3 mph N/A   Clear
12:55 PM 56.3 °F - 25.0 °F 30% 30.22 in 10.0 mi North 18.4 mph 27.6 mph N/A   Clear
1:15 PM 57.2 °F - 24.8 °F 29% 30.22 in 10.0 mi North 17.3 mph 25.3 mph N/A   Clear
1:35 PM 57.7 °F - 22.3 °F 25% 30.21 in 10.0 mi NNW 18.4 mph 31.1 mph N/A   Clear
1:55 PM 58.8 °F - 24.8 °F 27% 30.20 in 10.0 mi North 19.6 mph 24.2 mph N/A   Clear
2:15 PM 59.4 °F - 22.8 °F 25% 30.20 in 10.0 mi North 16.1 mph 25.3 mph N/A   Clear
2:35 PM 59.4 °F - 20.7 °F 22% 30.19 in 10.0 mi NW 19.6 mph 28.8 mph N/A   Clear
2:55 PM 59.7 °F - 22.6 °F 24% 30.19 in 10.0 mi North 19.6 mph 27.6 mph N/A   Clear
3:15 PM 59.9 °F - 22.1 °F 23% 30.18 in 10.0 mi NW 17.3 mph 24.2 mph N/A   Clear
3:35 PM 60.4 °F - 21.7 °F 23% 30.18 in 10.0 mi NW 17.3 mph 25.3 mph N/A   Clear
3:55 PM 60.3 °F - 19.6 °F 21% 30.18 in 10.0 mi NNW 18.4 mph 27.6 mph N/A   Clear
4:15 PM 60.4 °F - 21.7 °F 23% 30.18 in 10.0 mi NNW 19.6 mph 28.8 mph N/A   Clear
4:35 PM 60.4 °F - 21.0 °F 22% 30.18 in 10.0 mi NNW 17.3 mph 25.3 mph N/A   Clear
4:55 PM 60.8 °F - 21.4 °F 22% 30.18 in 10.0 mi WNW 15.0 mph 19.6 mph N/A   Clear
5:15 PM 60.8 °F - 21.6 °F 22% 30.18 in 10.0 mi NW 17.3 mph 24.2 mph N/A   Clear
5:35 PM 60.1 °F - 21.9 °F 23% 30.18 in 10.0 mi NNW 13.8 mph 20.7 mph N/A   Clear
5:55 PM 59.9 °F - 19.6 °F 21% 30.19 in 10.0 mi NW 15.0 mph 20.7 mph N/A   Clear
6:15 PM 59.2 °F - 20.3 °F 22% 30.19 in 10.0 mi NNW 11.5 mph 23.0 mph N/A   Clear
6:35 PM 58.5 °F - 19.8 °F 22% 30.20 in 10.0 mi NNW 15.0 mph - N/A   Clear
6:55 PM 57.0 °F - 20.3 °F 24% 30.20 in 10.0 mi NNW 17.3 mph - N/A   Clear
7:15 PM 56.3 °F - 21.0 °F 25% 30.21 in 10.0 mi NW 8.1 mph 11.5 mph N/A   Clear
7:35 PM 54.7 °F - 22.1 °F 28% 30.21 in 10.0 mi NNW 9.2 mph - N/A   Clear
7:55 PM 53.8 °F - 23.0 °F 30% 30.22 in 10.0 mi NNW 6.9 mph - N/A   Clear
8:15 PM 52.7 °F - 22.8 °F 31% 30.23 in 10.0 mi NNW 8.1 mph - N/A   Clear
8:35 PM 50.9 °F - 23.2 °F 34% 30.23 in 10.0 mi NNW 5.8 mph - N/A   Clear
8:55 PM 49.3 °F - 23.5 °F 36% 30.24 in 10.0 mi NNW 6.9 mph - N/A   Clear
9:15 PM 51.1 °F - 23.0 °F 33% 30.25 in 10.0 mi NNW 6.9 mph - N/A   Clear
9:35 PM 50.4 °F - 23.0 °F 34% 30.25 in 10.0 mi NW 3.5 mph - N/A   Clear
9:55 PM 50.0 °F - 22.8 °F 34% 30.25 in 10.0 mi NNW 5.8 mph - N/A   Clear
10:15 PM 47.8 °F - 23.4 °F 38% 30.26 in 10.0 mi Calm Calm - N/A   Clear
10:35 PM 48.7 °F - 21.9 °F 35% 30.26 in 10.0 mi Calm Calm - N/A   Clear
10:55 PM 48.4 °F - 24.1 °F 39% 30.27 in 10.0 mi Calm Calm - N/A   Clear
11:15 PM 42.8 °F - 28.4 °F 57% 30.28 in 10.0 mi Calm Calm - N/A   Clear
11:35 PM 43.7 °F - 28.2 °F 54% 30.28 in 10.0 mi Calm Calm - N/A   Clear
11:55 PM 44.6 °F 43.1 °F 24.8 °F 46% 30.28 in 10.0 mi WNW 3.5 mph - N/A   Clear